Haines, AK

7:39 PM AKDT on September 27, 2016 (GMT -0800)
Haines

Weather History for PAHN - January, 2014

Change the Weather History Date:

Saturday, January 25, 2014

  Actual Average Record
Temperature  
Mean Temperature 34 °F -  
Max Temperature 37 °F 26 °F 43 °F (1977)
Min Temperature 30 °F 19 °F -4 °F (1997)
Degree Days  
Heating Degree Days 32    
Moisture  
Dew Point 32 °F    
Average Humidity 94    
Maximum Humidity 100    
Minimum Humidity 83    
Precipitation  
Precipitation 0.00 in - - ()
Sea Level Pressure  
Sea Level Pressure 30.32 in    
Wind  
Wind Speed 11 mph (WNW)    
Max Wind Speed 17 mph    
Max Gust Speed -    
Visibility 7 miles    
Events      
Averages and records for this station are not official NWS values.
T = Trace of Precipitation, MM = Missing Value Source: NWS Daily Summary

Daily Weather History Graph

Daily Weather History Graph

Search for Another Location

Airport or City:

Trip Planner

Search our weather history database for the weather conditions in past years. The results will help you decide how hot, cold, wet, or windy it might be!

Date:

Astronomy

Jan. 25, 2014 Rise Set
Actual Time 8:26 AM AKST 4:03 PM AKST
Civil Twilight 7:38 AM AKST 4:51 PM AKST
Nautical Twilight 6:47 AM AKST 5:42 PM AKST
Astronomical Twilight 5:59 AM AKST 6:30 PM AKST
Moon 3:02 AM AKST (1/25) 11:10 AM AKST (1/25)
Length of Visible Light 9h 13m
Length of Day
7h 37m
Waning Crescent, 32% of the Moon is Illuminated
Jan 25
Waning Crescent
Jan 30
New
Feb 6
First Quarter
Feb 14
Full
Feb 22
Last Quarter

Hourly Weather History & Observations

Time (AKST) Temp. Windchill Dew Point Humidity Pressure Visibility Wind Dir Wind Speed Gust Speed Precip Events Conditions
12:08 AM 36.0 °F 26.3 °F 35.1 °F 97% 30.38 in 10.0 mi WNW 16.1 mph - N/A   Overcast
12:54 AM 36.0 °F 26.7 °F 35.1 °F 97% 30.38 in 9.0 mi WNW 15.0 mph - N/A   Mostly Cloudy
1:05 AM 36.0 °F 26.7 °F 35.1 °F 97% 30.37 in 10.0 mi WNW 15.0 mph - N/A   Scattered Clouds
1:54 AM 36.0 °F 27.5 °F 34.0 °F 93% 30.38 in 9.0 mi WNW 12.7 mph - N/A   Partly Cloudy
2:19 AM 35.1 °F - 34.0 °F 96% 30.37 in 4.0 mi Calm Calm - N/A   Mostly Cloudy
2:36 AM 34.0 °F 27.2 °F 33.1 °F 96% 30.37 in 2.0 mi WNW 8.1 mph - N/A   Overcast
2:50 AM 33.8 °F 23.2 °F 33.8 °F 100% 30.35 in 1.0 mi WNW 17.3 mph - N/A   Overcast
3:02 AM 34.0 °F 24.2 °F 33.1 °F 96% 30.35 in 1.2 mi WNW 15.0 mph - N/A   Overcast
3:22 AM 34.0 °F 24.6 °F 33.1 °F 96% 30.34 in 2.5 mi WNW 13.8 mph - N/A   Overcast
3:33 AM 34.0 °F 24.6 °F 33.1 °F 96% 30.34 in 1.0 mi NW 13.8 mph - N/A   Mist
3:47 AM 33.1 °F 28.7 °F 33.1 °F 100% 30.34 in 3.0 mi Variable 4.6 mph - N/A   Overcast
3:54 AM 33.1 °F 27.7 °F 33.1 °F 100% 30.35 in 6.0 mi NW 5.8 mph - N/A   Overcast
4:24 AM 33.1 °F 23.0 °F 30.9 °F 92% 30.32 in 2.0 mi WNW 15.0 mph - N/A   Overcast
4:38 AM 33.1 °F 30.0 °F 33.1 °F 100% 30.33 in 3.0 mi Variable 3.5 mph - N/A   Overcast
4:43 AM 32.0 °F - 32.0 °F 100% 30.32 in 1.8 mi Calm Calm - N/A   Overcast
4:54 AM 32.0 °F 28.7 °F 32.0 °F 100% 30.33 in 1.8 mi Variable 3.5 mph - N/A   Overcast
5:01 AM 32.0 °F - 30.9 °F 96% 30.32 in 2.5 mi Calm Calm - N/A   Overcast
5:09 AM 32.0 °F 25.6 °F 30.9 °F 96% 30.31 in 4.0 mi NW 6.9 mph - N/A   Overcast
5:43 AM 32.0 °F 20.8 °F 30.9 °F 96% 30.30 in 10.0 mi WNW 17.3 mph - N/A   Partly Cloudy
5:54 AM 32.0 °F 20.8 °F 30.9 °F 96% 30.30 in 10.0 mi WNW 17.3 mph - N/A   Clear
6:54 AM 35.1 °F 25.5 °F 32.0 °F 89% 30.30 in 10.0 mi WNW 15.0 mph - N/A   Clear
7:54 AM 32.0 °F 23.0 °F 30.9 °F 96% 30.30 in 10.0 mi WNW 11.5 mph - N/A   Clear
8:54 AM 32.0 °F 22.1 °F 30.9 °F 96% 30.29 in 10.0 mi WNW 13.8 mph - N/A   Clear
9:54 AM 35.1 °F 26.9 °F 32.0 °F 89% 30.30 in 10.0 mi WNW 11.5 mph - N/A   Clear
10:54 AM 35.1 °F 26.9 °F 33.1 °F 92% 30.30 in 10.0 mi WNW 11.5 mph - N/A   Clear
11:54 AM 37.9 °F 28.9 °F 33.1 °F 83% 30.28 in 10.0 mi WNW 16.1 mph - N/A   Clear
12:54 PM 37.9 °F 28.5 °F 34.0 °F 86% 30.28 in 10.0 mi WNW 17.3 mph - N/A   Clear
1:54 PM 37.0 °F 31.0 °F 34.0 °F 89% 30.28 in 10.0 mi WNW 8.1 mph - N/A   Clear
2:54 PM 37.0 °F 31.0 °F 33.1 °F 86% 30.29 in 10.0 mi WNW 8.1 mph - N/A   Clear
3:54 PM 35.1 °F - 33.1 °F 92% 30.29 in 10.0 mi Calm Calm - N/A   Clear
4:54 PM 36.0 °F 31.1 °F 33.1 °F 89% 30.28 in 10.0 mi NW 5.8 mph - N/A   Clear
5:54 PM 35.1 °F 30.1 °F 32.0 °F 89% 30.28 in 10.0 mi WNW 5.8 mph - N/A   Clear
6:54 PM 33.1 °F 28.7 °F 30.9 °F 92% 30.28 in 10.0 mi WNW 4.6 mph - N/A   Clear
7:54 PM 33.1 °F 27.7 °F 30.9 °F 92% 30.28 in 10.0 mi NW 5.8 mph - N/A   Clear
8:54 PM 33.1 °F - 32.0 °F 96% 30.30 in 10.0 mi North - - N/A   Clear
9:54 PM 30.9 °F 26.2 °F 30.0 °F 96% 30.30 in 10.0 mi WNW 4.6 mph - N/A   Clear
10:54 PM 30.0 °F 23.2 °F 30.0 °F 100% 30.31 in 10.0 mi WNW 6.9 mph - N/A   Clear
11:10 PM 30.9 °F - 30.0 °F 96% 30.30 in 3.0 mi Calm Calm - N/A   Partly Cloudy
11:54 PM 30.9 °F - 30.0 °F 96% 30.32 in 10.0 mi Calm Calm - N/A   Clear